Wind_Speed
20 20 21 21 21 21 21 20 20 20 20 20 21 20 20 20 21 21 20 19 20 23 24 24 23 22 21 19 19 19 19 19 18 21 27 25 19 16 16 14 13 11 10 10 8 7 8 8 8 7 8 11 14 16 14 16 19 12 4 4 4 3 4 4 5 5 4 6 7 11 17 13 10 15 18 17 17 20 23 24 27 27 30 31 30 33 31 29
20 20 20 21 21 21 21 21 21 21 20 20 21 21 21 21 21 21 20 20 20 23 23 23 22 21 20 18 17 17 18 18 19 25 25 19 16 17 18 17 17 14 11 10 9 9 9 10 13 12 13 15 16 18 15 13 15 9 4 3 4 6 5 7 8 5 6 6 7 10 16 15 11 13 14 11 13 20 21 24 33 34 33 33 32 31 29 29
20 20 20 20 21 21 21 21 21 21 21 20 21 21 21 21 22 22 21 20 21 23 23 21 21 20 18 17 16 16 17 18 21 22 14 8 13 17 20 19 18 16 13 10 8 9 9 11 14 16 18 17 19 22 18 12 12 8 6 2 6 11 9 13 11 12 16 10 7 12 17 16 13 12 11 11 14 18 17 21 29 31 32 32 31 30 30 29
20 20 20 20 20 20 20 21 21 21 21 21 21 21 21 21 22 22 22 21 21 23 22 20 19 18 17 16 15 14 15 16 15 11 8 4 12 17 21 20 17 16 14 10 8 10 12 15 18 19 18 16 20 21 11 10 9 3 3 1 8 18 12 15 16 18 21 15 12 16 19 15 13 12 10 12 12 12 16 25 30 31 34 33 31 30 28 27
20 20 20 21 21 20 20 20 21 21 21 21 21 21 21 21 22 22 22 21 21 22 22 19 18 17 17 16 14 13 11 8 4 3 8 5 8 17 20 19 16 14 13 10 10 13 14 17 19 21 16 10 13 13 8 9 7 0 4 4 8 14 9 14 19 18 17 17 18 19 17 11 13 12 10 10 6 9 19 28 32 34 35 33 32 30 27 26
20 20 20 21 21 21 21 20 21 21 21 22 21 21 21 21 22 22 22 21 21 22 22 18 16 17 17 16 15 12 6 2 2 2 7 7 4 14 17 18 16 14 14 12 13 16 15 16 17 19 12 7 10 8 10 11 4 1 5 8 12 15 11 13 18 17 14 18 19 17 17 16 16 11 11 10 5 14 28 30 31 32 32 31 31 29 28 26
20 20 20 21 21 21 21 21 21 21 21 21 22 22 22 22 21 22 22 21 21 22 22 19 16 17 17 16 16 11 9 13 9 4 6 5 1 9 15 17 16 15 15 14 17 18 15 16 18 18 10 8 11 8 14 15 10 5 3 6 11 15 15 16 17 17 15 17 20 22 20 17 15 9 12 11 8 22 32 29 30 30 29 28 27 28 27 25
21 21 21 21 21 22 21 21 21 21 21 21 22 22 22 22 21 22 22 21 21 21 22 18 15 16 17 14 13 10 13 15 7 2 5 5 3 5 12 17 17 17 17 16 21 20 15 17 19 18 11 8 13 12 16 12 8 7 5 8 11 13 14 16 18 19 18 19 22 24 19 17 18 15 13 12 15 26 29 28 29 28 27 26 25 27 26 23
21 21 21 21 21 22 22 22 21 21 21 21 22 22 23 23 22 22 22 22 21 21 22 18 16 16 16 13 8 8 11 7 3 2 4 5 6 5 10 17 19 18 18 19 23 21 16 19 21 21 14 13 18 13 10 5 6 7 10 10 10 13 14 14 16 19 21 22 22 18 15 19 22 17 12 14 20 25 26 27 27 26 25 23 23 24 23 21
22 22 22 22 21 22 22 22 22 22 21 21 22 22 24 24 23 22 22 23 21 21 20 18 17 14 15 11 4 4 6 3 2 5 6 9 9 8 11 16 19 20 19 20 23 22 20 22 24 25 20 17 18 9 5 5 8 11 14 11 10 13 14 14 16 21 23 23 23 16 12 19 21 12 8 16 23 22 24 26 25 25 23 22 22 22 21 19
22 22 23 22 22 22 22 22 22 22 22 22 22 22 23 24 24 22 22 23 22 21 19 19 18 14 13 9 8 8 6 2 0 3 5 10 12 12 14 17 20 20 20 20 24 24 22 25 26 25 17 12 13 5 7 12 10 10 13 12 11 11 13 16 17 21 19 18 23 19 12 16 17 9 9 20 22 21 24 24 24 24 22 22 22 21 21 19
23 23 23 23 23 22 22 22 23 23 22 22 22 22 23 24 25 23 23 23 23 21 18 18 17 14 12 11 17 13 8 4 2 3 6 7 8 10 14 19 21 20 20 21 23 22 20 22 26 26 19 12 10 4 9 16 12 12 13 10 7 7 9 14 13 17 15 14 25 20 11 11 11 10 15 22 22 21 23 22 23 23 22 23 23 22 20 18
23 23 23 23 23 23 23 23 23 23 23 22 22 22 22 25 25 24 24 23 23 23 19 16 16 16 12 13 16 9 8 6 5 6 9 10 8 6 13 18 19 17 19 21 20 19 18 20 25 29 25 17 7 1 8 14 14 14 11 5 6 4 6 11 12 16 13 16 28 17 5 7 8 14 20 21 22 22 22 22 23 22 22 23 23 22 18 17
23 24 24 24 23 24 23 23 23 23 23 23 22 21 22 25 25 25 25 24 24 23 20 15 14 14 12 16 14 5 10 9 5 6 10 11 8 7 15 18 17 15 17 19 20 19 19 21 25 25 21 17 9 1 3 7 12 10 5 4 5 3 5 9 12 13 9 15 27 13 3 7 9 16 22 20 21 21 20 22 23 22 24 24 22 21 17 17
24 24 24 24 24 24 23 23 24 24 24 24 23 21 22 24 26 26 26 26 25 24 20 13 10 10 13 20 14 4 9 11 10 10 11 12 8 10 17 19 17 17 18 19 21 21 22 24 23 17 15 18 16 7 1 4 6 4 5 4 3 4 5 8 11 11 7 10 19 10 4 7 9 15 24 23 21 20 18 20 22 22 24 24 22 21 18 17
24 24 24 24 24 24 24 24 24 24 24 24 23 22 22 24 26 26 27 27 26 22 16 8 5 6 8 12 9 5 11 15 15 12 13 15 13 14 16 17 16 18 20 20 20 22 24 23 20 16 14 14 11 5 1 4 2 1 5 4 4 5 4 5 9 13 12 8 11 9 5 7 8 15 25 24 22 22 20 18 20 23 24 24 22 20 20 18
24 24 24 24 24 24 24 24 24 24 24 24 24 23 22 24 26 27 28 26 21 15 7 2 0 6 10 11 8 10 15 16 14 14 15 16 16 16 15 17 17 18 20 21 21 22 23 18 12 10 10 7 5 4 1 3 4 2 4 4 5 5 4 6 6 12 14 8 7 8 7 9 10 15 23 25 24 22 21 20 20 22 25 26 22 19 21 21
24 24 24 24 24 24 23 23 24 24 24 23 23 23 23 24 26 25 22 15 9 6 3 6 5 3 10 14 11 11 15 16 14 16 17 16 19 20 17 18 19 19 20 20 20 23 21 14 7 3 4 5 6 4 4 6 6 5 7 4 4 5 5 7 6 9 13 7 6 6 7 12 11 13 20 24 26 23 20 21 20 21 25 27 22 21 23 22
25 25 24 24 23 23 23 22 23 23 24 23 21 22 22 22 21 15 7 4 4 2 5 7 10 4 9 14 13 8 11 14 13 15 18 19 21 22 19 18 19 20 17 11 12 18 14 6 5 3 4 6 7 7 6 11 11 9 10 7 6 7 6 7 4 7 11 7 7 7 9 14 12 10 15 21 25 24 22 21 20 20 24 26 23 22 24 24
25 25 25 24 23 23 23 22 21 22 23 22 20 20 18 16 12 6 3 8 13 14 18 16 16 19 23 28 24 10 10 14 15 18 19 20 21 22 21 20 18 17 12 5 7 15 11 3 4 6 7 10 11 11 7 11 14 12 12 9 9 9 7 9 6 6 9 6 6 9 11 14 14 10 14 21 23 21 22 22 21 21 23 24 23 24 25 25
25 26 26 25 24 23 22 21 20 19 20 19 19 19 17 13 9 7 12 19 22 24 26 24 21 26 30 34 30 18 11 15 17 19 18 21 23 18 18 19 13 8 9 9 9 12 10 4 6 9 11 14 14 13 9 8 11 11 11 8 9 9 8 12 11 7 7 6 5 8 10 11 14 11 13 20 17 16 22 23 22 23 23 22 22 24 25 24
25 25 26 26 25 23 22 20 18 17 16 15 16 17 15 15 11 12 19 20 24 28 25 26 28 28 32 33 31 26 15 14 15 19 20 24 24 15 17 16 9 5 8 11 8 6 7 6 8 12 13 14 14 13 10 10 11 9 9 7 7 7 8 11 13 9 6 5 6 10 9 7 11 11 12 16 14 17 27 28 27 28 25 24 24 25 26 24
24 25 26 26 25 24 22 19 17 15 13 14 16 15 14 21 23 21 23 18 20 30 27 26 29 27 31 32 27 29 19 15 13 19 23 24 24 19 18 13 8 7 8 9 8 5 5 7 11 14 15 14 14 13 11 10 10 7 7 7 6 7 9 7 10 12 8 5 7 12 9 5 8 7 8 16 18 19 28 31 32 33 30 29 29 27 27 27
24 25 25 25 26 24 22 20 16 13 14 16 15 12 17 26 29 23 20 14 12 26 32 30 29 27 29 29 25 26 20 20 17 19 24 25 23 19 16 14 10 8 8 11 12 9 5 8 13 15 15 15 13 11 10 8 6 5 5 6 7 12 14 10 11 11 9 7 7 11 7 2 7 7 5 13 17 18 24 29 30 33 33 32 31 29 30 30
24 25 25 25 26 24 23 20 13 10 13 15 12 14 18 22 22 20 13 9 7 18 28 25 25 27 30 28 24 20 17 19 20 21 25 27 24 16 12 16 12 7 10 13 13 10 7 12 17 15 14 15 12 9 10 8 5 6 7 7 5 9 12 12 16 12 6 6 8 11 6 3 7 10 7 7 9 12 18 22 25 31 33 31 32 32 32 31
24 25 25 25 25 25 23 16 10 11 15 15 13 16 18 16 17 18 9 5 4 9 12 12 16 20 27 26 21 18 14 13 20 22 26 29 27 17 10 12 10 8 11 12 9 6 7 13 16 14 13 14 12 9 9 10 6 5 6 8 6 5 6 7 15 12 5 6 9 12 8 2 6 9 10 8 6 9 13 15 22 31 33 32 34 35 34 33
25 24 25 25 23 25 24 17 14 17 17 15 14 16 17 14 14 15 6 2 5 7 7 13 13 14 23 24 23 17 6 9 18 23 28 30 29 23 11 7 7 8 10 8 6 5 8 13 15 14 14 11 10 8 9 11 8 5 5 8 7 7 9 10 13 11 6 5 8 12 9 4 5 9 9 10 8 6 8 10 16 27 33 33 34 37 38 37
25 24 24 24 21 21 23 24 22 17 12 12 12 14 14 12 12 12 3 1 5 4 6 11 11 13 19 23 27 18 7 11 14 18 28 31 29 23 11 8 8 10 11 7 5 7 9 12 13 15 13 8 6 8 9 9 7 5 6 6 6 8 11 9 9 8 6 5 5 10 9 4 4 7 6 8 8 8 9 10 12 22 32 33 34 38 40 39
25 24 24 24 21 18 20 25 23 13 9 10 11 11 11 10 10 7 1 2 6 3 5 9 10 13 16 18 24 21 14 14 10 15 27 30 30 22 10 12 11 9 13 11 7 7 10 15 16 13 11 8 7 9 9 6 5 5 8 8 7 8 9 4 5 6 3 4 5 8 10 5 2 4 6 6 7 10 12 10 9 20 33 34 34 38 39 40
26 24 24 25 23 19 20 24 17 8 9 12 11 12 12 8 4 2 3 3 5 2 6 7 7 12 14 11 15 17 14 14 12 19 25 26 31 26 14 16 15 7 10 11 11 9 11 19 19 11 8 10 10 12 11 8 7 6 6 8 8 6 4 2 2 4 4 1 5 7 8 7 4 5 8 9 12 16 13 10 10 17 29 35 34 37 39 40
26 25 23 24 23 21 23 21 10 7 12 15 14 15 12 5 2 2 4 4 5 3 6 5 6 12 13 9 10 13 12 11 11 16 16 16 21 19 11 11 11 6 6 7 9 12 12 13 12 8 10 13 13 13 12 9 8 6 6 5 4 4 2 1 3 4 3 3 6 6 6 5 3 5 10 14 18 19 16 14 15 16 23 32 34 36 39 41
27 25 23 23 22 23 25 19 10 11 14 12 13 12 7 2 4 4 5 4 4 6 8 7 8 10 12 12 10 12 11 9 10 11 11 10 9 10 8 6 5 4 5 5 6 9 11 9 6 8 12 12 11 9 7 6 6 6 5 4 1 1 1 1 2 2 1 4 5 4 6 6 4 7 15 19 17 18 20 21 22 21 24 31 35 35 38 42
27 26 24 22 22 25 25 20 14 13 11 8 8 6 2 3 4 6 8 5 5 5 4 8 12 12 12 12 10 12 12 9 11 11 11 11 8 9 11 11 8 6 4 5 6 6 7 9 9 10 9 8 8 6 5 4 5 5 5 4 4 2 1 1 1 2 3 4 4 6 6 5 5 5 12 20 20 21 27 29 29 30 30 33 37 36 37 42
27 26 25 23 23 25 23 19 14 12 10 6 4 3 5 5 4 7 10 10 10 11 9 5 10 14 12 10 9 11 10 9 12 11 11 12 9 7 10 14 14 9 5 5 6 6 6 6 8 8 6 9 8 5 6 6 5 7 6 5 5 4 3 3 3 3 4 5 5 7 6 4 5 5 4 14 23 25 27 31 33 36 36 35 36 34 34 39
27 25 26 25 24 22 19 17 13 11 9 7 2 3 6 6 5 7 10 11 11 11 14 15 10 12 11 9 10 12 10 8 12 12 9 11 9 8 9 11 15 12 7 5 4 5 7 5 10 12 8 13 11 9 8 8 6 6 5 5 4 4 4 3 5 6 5 4 4 5 4 3 6 6 3 9 16 22 23 24 26 27 28 30 32 33 34 37
28 26 25 24 22 19 16 14 13 12 11 8 3 5 7 6 6 7 8 10 10 10 12 15 11 9 9 7 8 13 12 9 11 11 7 11 11 10 10 9 13 14 9 6 3 4 6 4 9 15 10 12 15 13 10 9 5 2 4 5 5 4 4 3 4 5 5 4 3 3 3 1 0 4 1 11 14 15 16 16 19 23 26 29 32 35 35 35
29 27 26 24 21 18 14 12 12 15 15 8 4 6 6 8 10 11 12 12 14 13 10 9 6 3 6 8 6 11 12 10 10 9 6 9 11 12 12 11 14 16 14 10 4 3 7 4 5 14 10 11 18 16 13 11 8 3 3 6 4 5 5 2 0 3 4 4 3 4 6 3 2 4 2 11 15 12 11 12 18 24 27 28 29 34 35 35
29 30 28 19 12 13 16 14 13 17 15 6 7 8 6 9 14 17 18 17 16 15 11 8 5 5 5 6 7 11 12 9 9 7 6 7 8 13 14 11 15 18 19 17 8 4 6 4 5 15 13 11 16 14 11 10 11 8 5 7 7 4 5 3 1 3 4 3 2 3 6 4 4 4 4 10 12 11 11 12 13 15 20 23 26 32 34 33
26 24 18 8 2 9 20 19 17 19 12 4 7 7 6 10 16 22 25 20 14 13 11 10 8 8 10 7 7 11 13 10 9 7 6 6 6 14 17 11 13 19 21 19 9 5 6 3 3 12 16 11 10 9 7 6 8 8 6 6 7 5 4 5 4 4 4 3 1 3 4 3 4 5 8 10 11 11 12 12 12 14 20 26 28 32 33 31
19 13 11 7 5 10 23 23 19 15 8 6 7 7 7 10 16 25 31 24 14 11 10 10 10 10 11 9 6 8 11 12 10 7 7 8 7 11 18 14 10 17 23 21 12 7 6 4 4 7 13 10 6 7 8 6 5 6 6 6 5 4 3 5 4 3 4 4 2 1 3 4 6 3 6 11 11 10 12 12 10 14 23 29 32 34 35 33
12 6 8 7 6 17 25 20 13 8 5 6 7 9 10 11 13 19 28 27 19 17 16 14 14 12 12 11 9 6 5 9 11 9 6 9 10 7 13 18 12 13 18 17 13 8 4 4 4 5 9 8 6 9 11 9 7 6 4 5 5 3 3 3 2 3 3 3 4 4 1 5 5 2 5 9 10 8 12 13 9 12 19 26 30 32 33 33
9 7 8 8 13 17 21 12 6 7 6 7 9 12 13 13 14 15 21 24 19 18 18 16 15 15 14 11 7 6 3 3 8 10 7 10 12 8 13 24 22 16 14 10 11 12 8 4 4 5 8 8 8 14 16 13 10 8 5 4 3 2 2 3 3 4 3 2 4 4 4 3 5 3 6 7 10 12 15 14 9 12 21 26 28 29 32 33
9 16 18 6 5 10 14 7 5 7 6 10 14 17 18 15 13 14 17 18 15 14 14 12 12 13 11 9 8 7 6 5 5 8 10 10 13 15 20 29 28 19 12 7 9 12 10 4 3 3 5 8 9 11 17 16 12 8 6 6 6 6 5 4 4 5 4 3 4 3 4 2 6 2 7 10 13 16 16 14 12 16 22 25 22 21 26 30
16 22 20 10 9 11 9 5 5 5 7 11 14 16 19 17 15 15 14 13 13 11 10 10 11 12 10 8 9 8 5 4 6 8 9 7 11 22 27 30 28 18 10 8 9 10 8 4 4 2 1 6 8 6 9 13 10 6 4 5 7 11 11 7 2 2 2 5 6 5 3 4 5 1 8 10 11 11 12 12 15 19 21 19 17 16 17 23
16 15 14 9 9 13 12 9 7 6 7 11 13 14 16 16 17 20 18 16 18 15 11 10 11 10 8 8 8 8 7 6 6 7 7 7 9 19 26 30 27 17 14 19 19 13 8 5 5 5 3 6 7 5 6 8 6 4 5 6 7 8 10 8 3 2 2 6 5 6 5 5 5 4 7 8 8 8 10 13 14 17 18 16 16 16 15 18
9 5 7 12 13 12 14 17 16 10 7 9 10 11 14 13 15 22 22 18 20 21 15 13 12 10 9 10 10 10 9 8 7 7 6 6 4 6 14 24 27 21 21 27 25 13 5 4 6 7 7 7 7 6 6 8 6 6 8 9 11 10 7 6 5 4 5 5 5 6 10 8 7 7 7 8 9 8 9 12 14 15 16 17 18 19 18 20
5 4 5 9 12 11 9 13 14 9 9 11 7 8 14 14 11 15 18 15 19 22 16 11 10 8 9 11 10 9 10 7 6 7 7 5 6 9 11 13 20 25 19 18 21 11 3 5 8 8 9 9 6 5 4 6 8 8 11 13 14 15 12 5 5 6 6 6 5 8 14 14 11 11 11 10 10 8 8 11 15 18 17 16 18 21 23 23
4 8 10 9 6 5 6 12 14 12 14 14 9 9 16 17 13 11 10 10 17 19 10 5 8 11 13 13 10 9 10 8 5 5 6 5 6 9 13 18 9 22 19 9 13 10 3 4 8 8 9 10 8 7 6 6 8 8 8 13 16 16 14 9 6 5 8 7 6 9 16 16 13 13 12 11 11 10 10 12 14 15 14 10 12 19 25 24
9 9 10 11 8 9 11 18 21 17 14 13 9 10 14 16 16 14 7 5 11 11 5 4 10 13 14 14 11 8 7 6 4 3 2 5 7 6 6 13 6 13 17 10 8 5 3 3 4 5 5 5 6 9 9 6 6 6 6 6 9 11 11 10 9 7 7 8 7 12 16 13 12 14 13 13 17 19 19 19 16 13 11 9 9 14 19 23
11 9 12 14 12 13 15 17 17 13 10 11 9 10 13 15 16 15 7 1 5 9 8 9 14 15 14 16 13 8 4 6 6 3 2 4 4 4 2 6 7 4 9 8 5 3 2 4 3 3 2 3 5 9 12 10 6 6 9 10 8 9 8 8 9 8 9 8 6 13 13 8 8 11 11 13 20 22 18 18 17 13 12 11 9 8 9 12
9 10 13 13 9 9 11 12 11 9 7 7 9 9 11 13 11 8 4 1 2 7 11 14 15 13 12 15 12 7 10 12 11 10 8 5 2 3 3 5 9 10 8 4 3 4 4 2 1 4 2 2 4 8 12 12 9 10 12 11 9 8 7 6 6 6 8 9 7 10 9 6 5 7 9 12 16 16 12 14 15 12 10 9 7 5 3 4
12 13 14 12 8 7 9 9 9 8 6 8 13 15 14 15 9 7 4 4 8 12 12 13 13 8 5 7 7 8 13 15 14 13 11 9 9 8 8 13 15 11 6 3 2 4 6 3 2 4 2 2 4 8 8 6 8 10 9 7 7 6 4 5 5 4 4 6 6 7 6 6 6 8 9 8 8 9 10 13 15 12 9 7 3 0 3 6
Wind_Direction
341 341 342 342 343 343 344 344 343 342 341 340 339 338 338 337 337 338 337 336 335 333 330 326 321 316 311 307 304 301 297 291 285 278 269 264 259 247 236 227 227 230 234 243 238 235 239 249 269 279 272 258 249 247 252 252 240 225 184 146 154 196 211 155 152 199 179 126 127 131 125 118 116 124 132 133 126 116 109 114 121 119 122 127 134 141 143 141
338 340 340 341 342 342 343 342 342 341 340 339 337 337 337 335 335 335 336 336 335 334 331 326 322 317 314 310 307 303 298 295 287 279 275 272 260 237 225 223 224 225 230 236 235 234 231 242 251 251 244 243 245 236 238 237 224 216 173 159 153 177 183 157 176 174 132 126 132 127 121 116 114 125 134 129 115 108 99 102 108 110 118 125 133 139 141 142
337 338 338 340 340 340 341 340 340 339 338 338 336 336 335 335 335 333 335 334 334 334 330 326 323 318 316 313 309 305 302 301 293 292 296 269 240 224 213 216 220 222 228 231 236 233 231 254 260 252 235 233 242 233 226 212 213 220 186 156 140 160 163 168 168 125 135 156 137 108 96 94 94 103 116 116 108 105 107 111 113 119 126 131 134 138 141 143
335 336 337 338 338 339 339 338 339 338 337 336 335 335 333 334 333 332 334 332 333 334 330 326 323 320 317 314 309 305 309 311 301 313 347 270 218 208 207 209 213 217 222 223 233 223 227 253 264 264 245 233 245 241 227 184 200 230 145 33 144 156 152 153 146 132 151 160 135 109 91 91 103 110 111 113 114 109 120 129 130 134 136 138 140 143 146 149
334 335 335 336 336 337 337 337 337 336 336 334 334 333 331 333 332 332 332 331 332 333 331 324 322 323 317 312 305 302 313 330 321 14 14 333 205 195 201 203 206 211 213 216 227 216 226 248 261 270 261 242 250 256 257 202 203 360 119 47 103 136 121 131 140 147 157 136 117 103 97 107 110 113 107 98 112 130 134 136 136 139 142 144 146 146 149 151
334 334 333 334 335 335 335 335 334 334 334 333 332 331 331 331 330 331 330 331 330 331 331 322 321 321 316 311 299 296 294 275 269 2 16 9 180 187 192 198 201 203 208 211 215 213 228 250 261 268 266 256 249 244 242 214 177 69 127 78 83 104 109 140 143 138 134 116 110 107 111 116 105 107 123 113 78 119 133 137 138 141 144 147 149 150 152 153
332 333 333 333 333 333 333 333 332 332 331 331 330 330 329 329 330 329 328 331 328 329 330 320 317 318 318 307 291 291 267 257 263 287 329 337 204 179 183 194 198 198 204 206 209 212 227 249 255 254 256 254 239 234 234 209 156 135 90 78 108 116 125 144 137 125 126 119 119 121 116 111 104 111 135 132 95 113 128 135 139 142 144 149 152 154 156 158
330 331 331 331 332 332 331 331 331 330 329 329 329 328 327 327 328 328 326 328 327 328 328 320 313 315 320 306 292 299 272 267 280 289 290 282 261 201 186 191 194 197 203 202 207 211 227 250 252 249 256 254 246 252 240 212 138 127 92 78 105 112 115 125 124 118 113 105 110 117 115 113 112 115 122 117 104 115 127 134 139 142 145 151 155 158 159 163
329 328 329 330 330 330 329 329 329 328 327 326 327 326 325 325 326 327 324 325 326 326 327 321 308 312 321 304 291 297 275 291 347 246 265 266 257 244 206 196 193 196 202 205 210 212 230 247 244 242 243 253 263 259 226 187 93 114 117 113 121 118 115 119 121 113 104 101 106 109 113 123 125 124 122 116 113 119 129 134 139 143 149 154 157 160 158 162
327 326 327 327 328 328 328 327 327 326 325 324 324 324 323 322 323 325 322 322 323 324 326 321 309 311 318 299 264 274 269 353 19 203 234 258 256 252 226 206 196 196 201 210 215 215 226 236 239 245 245 255 268 256 176 118 95 110 122 133 134 129 130 127 118 111 110 111 114 110 112 130 135 131 122 124 122 127 134 136 143 147 151 157 156 156 158 165
325 325 325 325 326 326 326 326 325 325 324 322 322 322 322 320 320 322 320 320 320 321 323 320 311 307 313 288 239 237 213 176 323 196 248 256 250 246 227 205 197 199 203 212 221 221 226 236 246 257 257 259 267 255 115 112 112 120 128 123 121 137 134 119 110 114 118 115 121 125 133 135 129 121 122 129 131 135 138 141 149 150 153 160 155 156 166 170
324 324 324 323 324 324 324 324 323 322 322 321 319 320 320 317 317 318 318 318 318 318 318 319 310 302 309 273 251 243 201 183 213 238 290 292 271 246 218 203 198 199 205 216 225 226 232 245 254 260 266 275 278 283 121 137 151 145 132 115 135 164 128 120 122 129 130 125 135 141 143 130 118 127 132 136 142 142 143 148 152 151 155 157 152 159 174 174
323 323 323 322 322 321 323 322 321 321 319 319 318 318 317 315 314 313 315 316 316 315 312 315 306 298 300 273 270 262 217 206 182 223 263 282 287 238 203 198 195 201 209 218 227 230 240 253 255 260 273 288 299 85 148 154 147 138 132 127 155 166 136 137 130 134 137 136 147 154 130 118 122 134 139 147 150 145 150 154 152 155 156 152 153 165 179 173
322 322 321 321 321 320 320 320 320 318 317 318 317 316 315 313 310 309 312 312 313 312 307 308 301 295 286 276 286 263 225 219 196 239 240 246 263 214 193 187 190 207 215 220 227 233 244 257 260 266 279 286 292 268 171 136 124 126 125 121 144 161 162 144 133 147 156 152 158 159 97 136 138 138 146 155 151 148 155 152 153 157 150 149 156 168 179 173
321 321 320 320 319 318 318 319 319 317 316 316 315 315 314 310 307 306 309 309 311 310 302 301 299 296 285 283 288 245 229 227 219 231 220 221 227 207 193 180 188 210 220 226 233 241 250 258 261 268 280 283 285 272 222 98 116 124 118 135 177 174 169 146 144 153 142 163 168 150 104 147 141 148 154 156 151 151 155 153 157 155 147 152 160 168 178 176
320 320 319 319 318 317 317 317 317 315 314 314 314 314 312 308 305 304 306 307 308 305 299 297 307 306 285 284 291 255 235 224 218 217 213 214 209 208 196 184 195 210 220 229 237 248 255 257 252 255 273 284 285 260 135 85 125 135 121 154 190 174 181 156 148 148 144 175 175 140 133 149 143 156 157 156 153 153 160 165 164 155 152 157 161 172 177 173
320 319 318 318 317 316 316 317 317 315 312 314 314 313 312 307 304 304 305 304 303 298 288 204 280 307 271 258 266 246 224 212 215 215 214 210 201 204 196 193 207 212 218 228 235 244 255 257 244 248 267 274 275 254 173 125 165 191 148 160 187 186 175 157 157 156 158 179 171 143 137 143 148 157 158 158 156 158 166 171 169 160 158 159 163 176 172 169
320 319 318 317 316 314 315 317 318 315 312 312 314 315 312 308 306 306 303 301 295 295 284 178 160 321 265 244 251 240 215 208 215 217 212 203 199 200 193 196 208 211 215 224 234 240 247 246 224 245 271 260 266 240 177 161 179 175 162 177 189 190 177 166 172 167 168 169 158 155 134 138 149 157 161 161 157 163 168 166 168 163 158 159 167 177 170 170
319 319 318 316 316 314 314 317 319 318 314 312 314 313 311 311 313 309 301 279 237 276 302 218 188 229 267 259 268 252 217 212 208 212 206 194 200 202 193 196 206 212 214 213 224 232 235 219 197 240 256 247 253 242 187 164 183 168 158 188 186 181 187 169 176 178 170 159 156 164 138 140 155 161 163 165 163 165 165 162 163 162 159 162 171 174 170 173
320 319 317 316 316 314 314 318 321 321 317 314 316 318 318 323 325 324 320 288 279 286 287 261 226 240 267 277 279 265 212 210 198 200 198 186 198 204 192 196 206 212 216 204 204 216 219 204 200 220 238 246 250 249 223 178 189 174 162 192 186 179 183 162 183 202 167 160 175 161 143 147 159 165 164 170 171 164 159 159 162 164 163 165 171 170 170 177
320 319 317 317 316 314 315 318 321 323 318 313 316 317 313 314 309 304 307 296 292 293 284 273 253 247 264 275 276 266 214 195 193 192 189 186 197 202 186 191 206 207 212 216 210 207 208 225 221 219 233 241 250 255 246 219 210 185 171 193 190 184 179 164 180 206 173 166 174 141 138 153 158 164 168 172 175 164 160 161 163 167 166 170 174 169 171 176
321 319 317 317 315 315 316 317 323 322 310 304 306 302 302 317 316 300 300 296 292 292 284 277 268 256 262 268 269 266 230 182 196 194 185 190 200 196 172 182 212 202 204 219 215 194 202 227 220 221 234 235 245 253 243 241 238 207 177 189 204 177 157 166 175 185 183 171 162 143 140 152 155 163 170 173 180 169 167 166 165 168 170 176 176 170 173 174
320 319 318 316 315 315 315 319 321 312 298 293 295 294 316 337 334 311 293 289 292 290 282 271 263 253 256 258 259 261 232 180 197 197 186 194 200 193 171 175 218 203 198 219 217 194 193 224 220 219 231 232 239 244 237 241 245 231 184 182 210 173 155 168 168 172 187 186 159 145 143 144 151 166 175 178 184 172 169 170 169 172 175 180 179 176 179 178
320 319 317 316 315 314 316 319 314 303 292 282 288 314 335 335 337 329 300 288 291 284 278 267 256 249 246 247 252 253 219 179 193 195 191 198 199 197 184 181 204 211 204 211 222 227 201 207 220 224 231 232 234 230 231 247 257 270 234 200 197 177 170 163 158 170 181 182 159 133 129 158 160 176 195 183 183 172 169 170 167 171 176 179 181 181 181 182
319 319 317 316 316 314 316 318 311 301 285 277 299 330 327 323 339 353 326 296 278 276 279 264 248 244 236 242 250 234 191 181 201 195 192 201 201 199 193 188 194 214 209 205 219 233 215 204 214 227 233 235 241 225 214 228 257 281 255 236 217 180 177 160 156 164 166 184 173 135 127 240 187 180 195 187 179 176 172 167 164 168 174 177 180 181 181 183
319 318 316 316 317 316 315 314 307 300 290 290 308 311 303 310 341 356 341 295 262 265 268 224 214 226 223 232 233 202 176 195 209 201 192 198 205 205 196 188 190 212 210 204 216 229 218 208 210 228 232 229 241 238 212 205 220 263 233 228 256 237 229 186 160 161 171 196 188 161 148 205 198 191 193 179 170 184 179 166 164 168 174 178 179 181 182 183
317 316 315 314 317 319 316 308 303 307 308 310 308 301 300 306 334 347 345 266 256 244 208 180 181 198 205 210 205 188 177 188 199 209 195 186 204 216 215 191 180 211 217 203 208 214 217 211 207 224 234 227 228 234 226 204 202 254 222 198 224 243 252 228 183 176 182 180 193 185 155 118 194 209 194 165 159 186 186 173 168 170 176 180 179 180 184 185
314 314 312 309 313 318 312 303 304 314 327 327 315 308 310 312 331 344 350 250 275 245 166 166 173 186 190 191 193 195 203 178 181 211 198 183 198 213 221 214 194 207 220 221 207 193 214 224 209 211 226 236 227 225 231 206 188 246 250 216 213 224 248 244 186 180 178 157 202 200 160 121 212 210 174 154 164 189 199 197 181 172 176 180 179 179 183 186
312 311 309 306 304 307 301 295 300 319 335 323 316 317 325 330 335 334 249 253 290 280 153 165 166 177 183 182 190 196 202 200 186 194 190 182 194 209 225 232 224 209 216 233 238 198 206 226 224 212 209 224 243 245 240 202 175 232 253 266 265 231 247 272 155 154 146 152 214 207 174 162 217 192 166 164 183 198 201 206 194 178 178 181 181 179 180 183
309 307 307 304 300 299 293 286 291 320 325 320 323 330 339 339 325 278 212 239 289 262 155 163 156 174 190 185 187 189 196 214 200 183 181 176 190 209 231 237 239 232 217 226 239 239 221 219 226 229 199 192 222 247 243 215 194 209 229 252 266 254 259 306 136 116 91 162 237 224 195 182 185 190 181 182 196 198 192 195 199 186 181 182 182 179 178 179
305 303 303 301 299 298 289 281 288 312 311 315 315 319 332 327 219 220 227 254 291 235 166 171 157 169 190 194 185 182 193 221 207 184 179 172 186 204 222 235 238 242 237 219 225 248 244 220 218 237 220 192 201 234 234 210 201 204 213 228 250 269 272 347 3 45 87 233 248 252 252 236 209 203 202 203 202 193 183 188 196 193 184 183 182 179 178 180
303 299 298 297 295 288 278 277 292 297 296 302 300 307 328 272 211 223 239 271 280 198 173 181 176 174 191 196 189 181 188 221 224 198 182 170 182 197 205 218 209 208 237 225 211 232 247 238 201 219 235 210 196 221 216 194 211 217 222 224 208 273 247 197 344 354 205 233 235 245 270 259 230 204 200 205 205 191 186 190 190 190 185 181 182 180 179 182
302 300 297 292 287 279 272 276 284 284 287 295 298 303 297 241 221 221 235 251 259 231 179 171 177 183 191 189 187 184 186 210 224 211 185 175 181 193 205 218 215 206 210 216 212 204 234 252 217 202 223 218 202 197 181 189 219 220 211 191 164 129 129 175 228 262 256 265 251 246 258 257 264 246 198 198 203 194 189 188 187 190 190 185 184 181 179 182
304 304 299 290 282 275 271 273 271 270 271 263 281 274 226 238 239 234 238 237 253 271 282 251 187 182 191 193 188 188 190 206 218 211 180 174 188 193 200 216 223 223 213 216 222 202 210 237 227 215 187 184 205 204 178 180 201 219 205 166 163 153 147 174 171 182 232 257 254 243 238 218 234 259 181 183 196 191 184 184 186 191 193 187 183 179 177 181
307 307 301 292 282 273 268 264 254 247 239 216 217 234 217 228 236 243 249 245 254 268 276 277 241 187 187 195 192 196 199 206 217 217 184 169 186 196 192 209 220 223 216 211 222 217 222 225 219 222 183 164 195 227 203 188 207 217 173 150 184 185 161 187 195 184 198 233 244 231 225 197 205 226 110 134 177 182 175 178 182 186 185 177 176 179 178 180
312 310 304 294 280 269 257 245 233 217 197 182 203 227 219 231 230 233 249 249 257 263 267 274 257 199 181 184 198 203 199 200 211 217 195 171 181 195 195 200 214 222 221 208 210 202 218 256 201 194 192 177 190 217 218 205 222 207 143 164 210 219 178 157 205 209 201 230 241 226 259 308 181 262 189 117 141 161 160 167 176 177 175 172 175 181 182 180
319 317 309 294 277 265 241 217 209 194 180 176 221 230 220 233 237 245 259 265 270 276 285 292 289 243 182 176 198 203 189 190 204 208 199 179 179 193 199 200 205 219 231 221 235 213 196 260 191 169 194 205 189 207 233 222 211 180 162 181 193 253 241 136 36 246 207 222 231 216 237 217 156 259 230 125 132 145 144 155 173 173 169 170 176 182 185 184
324 323 314 300 276 243 214 201 195 181 173 183 235 240 237 236 237 245 257 269 280 287 291 288 299 313 254 195 186 196 184 178 193 202 204 185 176 186 194 206 200 209 232 226 226 252 207 233 211 176 188 199 181 198 238 231 206 181 173 175 165 221 240 170 199 224 186 213 263 250 244 219 193 213 168 135 138 136 125 135 155 158 154 160 172 182 187 186
329 326 312 317 345 205 195 194 191 177 173 201 225 228 240 244 244 250 260 274 290 292 285 280 286 287 270 243 192 190 182 179 193 202 204 186 178 186 188 202 197 197 224 230 219 250 231 236 244 188 182 178 169 189 222 235 214 189 184 188 176 192 195 175 195 184 155 167 233 289 292 288 259 215 161 150 145 132 123 128 141 150 154 158 168 179 184 183
336 320 298 334 339 201 181 180 181 173 187 224 223 232 239 244 247 252 260 269 279 280 278 288 289 278 277 283 266 220 185 182 196 200 195 181 176 188 187 195 201 193 211 225 222 230 228 222 250 195 178 175 171 188 197 201 203 194 196 194 191 212 187 177 209 192 147 147 167 255 302 290 283 267 140 138 133 127 124 123 136 156 164 168 169 177 184 186
348 300 300 28 110 177 170 168 182 190 223 231 228 245 244 248 253 252 257 261 261 261 262 270 276 274 278 281 274 258 198 186 199 198 189 181 182 196 191 193 203 198 204 219 222 221 219 201 210 189 181 189 184 179 188 204 206 197 198 190 191 209 165 151 233 224 156 145 167 164 189 277 291 24 99 120 121 121 120 121 138 155 164 174 175 179 188 191
356 272 264 94 115 165 167 165 210 212 222 239 237 246 247 251 258 257 260 264 264 260 253 251 257 261 264 270 286 314 317 245 212 201 190 184 188 198 194 195 201 206 205 212 213 217 228 212 189 192 190 193 189 178 183 205 216 206 207 197 192 227 184 152 189 222 223 183 175 142 118 269 291 56 86 99 112 121 122 126 144 152 156 167 176 185 193 194
325 285 269 225 160 201 188 189 238 210 224 249 243 249 251 250 254 256 259 263 264 263 253 246 255 259 260 269 281 297 300 291 269 228 210 197 191 192 194 195 198 206 211 203 200 212 225 215 174 210 200 187 198 191 183 194 208 210 212 193 191 224 228 196 172 180 205 195 173 118 103 231 285 27 101 111 121 123 121 121 119 129 145 154 160 174 188 196
312 300 286 242 208 234 238 235 231 220 240 245 242 249 251 250 253 253 256 257 255 261 260 252 256 253 247 247 254 272 279 269 296 275 238 223 196 191 195 198 197 203 204 183 179 194 209 200 155 150 180 176 198 215 189 191 198 204 222 206 197 204 209 226 242 127 196 207 164 124 128 218 258 180 120 114 113 115 124 134 127 129 142 148 148 158 176 194
318 307 297 277 236 241 250 247 246 258 259 251 250 250 247 251 251 247 252 260 258 263 267 260 265 268 265 263 261 273 277 261 293 302 273 261 213 189 196 200 196 201 204 188 177 174 185 203 172 160 169 173 190 217 196 185 185 190 226 247 240 216 201 206 209 106 210 229 184 135 150 216 236 185 139 127 124 121 135 151 149 146 152 156 160 170 175 183
323 305 303 316 311 285 260 249 250 256 265 267 267 260 253 250 245 244 247 252 256 261 265 262 272 292 292 281 271 264 264 256 257 279 300 301 268 218 214 206 193 196 209 197 185 174 159 188 179 160 170 180 190 207 180 159 165 178 199 231 256 257 233 186 166 187 191 193 212 178 152 167 207 193 168 162 157 149 151 155 147 145 157 164 168 177 183 185
295 310 336 337 327 322 303 272 258 254 268 270 267 276 271 264 256 246 238 242 251 251 255 259 263 280 287 283 283 274 270 267 252 277 321 344 328 331 311 259 206 191 199 198 189 185 115 164 179 160 172 190 200 232 217 173 189 193 185 203 230 247 250 223 178 195 165 143 221 207 158 158 191 194 181 178 170 166 172 163 150 150 159 166 171 178 183 186
293 323 338 348 325 313 334 311 296 295 293 283 264 261 267 265 269 259 243 265 266 246 237 271 266 265 272 276 288 286 275 273 266 293 342 6 345 350 339 318 256 179 176 182 185 183 92 150 183 167 179 203 214 236 247 210 213 224 204 199 208 222 237 234 204 174 148 154 212 203 170 167 185 188 179 180 180 169 144 131 140 153 157 155 169 181 185 189
337 333 330 340 321 290 295 295 293 294 297 299 288 265 263 258 260 262 258 308 297 265 231 248 259 262 264 265 275 278 267 273 267 257 30 25 359 9 350 325 318 169 180 188 174 165 104 158 191 154 166 226 244 250 258 245 234 261 276 253 220 217 228 232 231 218 189 189 188 180 182 185 184 185 186 183 174 157 138 132 141 153 154 152 159 173 185 195
354 346 327 325 307 289 293 296 298 300 297 302 296 273 266 258 255 261 256 98 329 301 289 266 256 259 261 262 269 284 320 346 341 324 47 57 24 17 354 306 322 283 225 202 144 113 167 201 212 115 78 326 280 257 249 247 264 277 273 271 257 242 241 237 240 236 225 229 189 170 186 207 192 180 175 162 152 143 139 145 151 152 151 157 163 172 192 201
356 345 331 322 304 300 312 312 308 304 296 300 302 292 281 273 274 288 294 69 339 293 295 286 265 253 262 270 277 323 2 360 352 347 360 22 5 336 329 296 308 314 282 227 127 125 166 205 153 107 86 313 294 270 239 222 237 256 251 250 249 249 252 251 248 234 225 226 192 160 175 208 198 163 139 132 133 132 136 138 134 128 128 136 146 158 190 214
352 344 340 328 303 302 314 312 306 303 309 325 328 324 299 282 306 348 330 336 328 301 300 309 298 280 292 299 300 345 358 349 340 336 338 337 321 316 317 305 301 303 303 327 32 133 149 142 107 105 111 252 286 291 273 229 217 235 241 250 267 281 316 335 318 311 288 246 187 158 171 176 145 121 118 120 115 112 116 115 109 102 97 97 95 359 259 256
Height
1531 1530 1529 1528 1526 1525 1523 1522 1521 1519 1518 1516 1514 1513 1512 1511 1509 1508 1506 1504 1503 1500 1498 1496 1494 1493 1492 1491 1490 1489 1488 1488 1487 1486 1482 1480 1485 1487 1488 1489 1490 1492 1493 1493 1494 1495 1494 1493 1492 1492 1493 1493 1492 1490 1489 1488 1486 1488 1493 1506 1516 1516 1513 1506 1508 1510 1508 1508 1506 1505 1506 1508 1511 1512 1513 1515 1517 1518 1521 1524 1527 1531 1534 1538 1542 1544 1546 1549
1531 1530 1528 1527 1526 1524 1523 1521 1520 1519 1517 1516 1514 1512 1511 1510 1509 1507 1505 1504 1502 1500 1498 1495 1494 1492 1491 1490 1489 1488 1487 1486 1485 1482 1478 1479 1482 1484 1485 1487 1489 1490 1491 1492 1493 1493 1493 1493 1492 1491 1492 1491 1489 1487 1486 1485 1484 1485 1491 1503 1510 1509 1504 1498 1500 1501 1502 1507 1504 1503 1505 1507 1510 1511 1513 1515 1517 1519 1523 1527 1529 1532 1537 1541 1543 1545 1548 1550
1530 1529 1528 1526 1525 1524 1522 1521 1519 1518 1516 1515 1513 1512 1510 1509 1508 1506 1505 1503 1501 1499 1497 1495 1493 1491 1490 1489 1488 1487 1486 1484 1482 1478 1476 1477 1478 1480 1483 1485 1487 1489 1490 1491 1492 1493 1492 1492 1492 1491 1491 1489 1486 1485 1483 1482 1482 1481 1488 1501 1503 1497 1496 1495 1496 1498 1500 1504 1502 1503 1505 1507 1510 1511 1513 1516 1518 1521 1525 1528 1530 1534 1538 1541 1544 1546 1548 1550
1530 1528 1527 1526 1525 1523 1522 1520 1519 1517 1516 1514 1513 1511 1510 1508 1507 1505 1504 1502 1501 1499 1496 1494 1492 1491 1489 1488 1487 1487 1485 1484 1479 1475 1475 1474 1475 1477 1480 1483 1486 1488 1489 1490 1491 1491 1491 1490 1490 1490 1490 1487 1483 1483 1482 1482 1482 1480 1486 1496 1493 1488 1492 1494 1495 1498 1500 1502 1502 1504 1507 1510 1512 1512 1513 1515 1520 1525 1526 1528 1529 1533 1537 1540 1544 1546 1548 1550
1529 1528 1526 1525 1524 1522 1521 1520 1518 1517 1515 1514 1512 1510 1509 1507 1506 1504 1503 1502 1500 1498 1496 1494 1492 1491 1489 1487 1487 1486 1486 1487 1479 1474 1475 1474 1474 1476 1479 1482 1485 1487 1488 1490 1489 1489 1490 1489 1488 1487 1488 1485 1481 1483 1482 1478 1479 1481 1483 1485 1485 1486 1491 1494 1494 1498 1499 1501 1502 1504 1510 1513 1513 1514 1515 1516 1522 1524 1524 1528 1530 1532 1536 1539 1542 1545 1548 1550
1528 1527 1525 1524 1523 1522 1520 1519 1517 1516 1514 1513 1511 1510 1508 1507 1505 1503 1502 1501 1499 1497 1495 1493 1492 1490 1488 1487 1486 1485 1487 1487 1477 1474 1475 1474 1475 1476 1478 1482 1483 1486 1487 1488 1488 1488 1488 1487 1487 1486 1486 1484 1482 1482 1481 1476 1477 1484 1485 1480 1483 1486 1491 1495 1494 1497 1499 1501 1503 1506 1511 1513 1514 1516 1517 1517 1520 1521 1522 1527 1531 1534 1537 1540 1542 1544 1547 1549
1527 1526 1525 1523 1522 1521 1519 1518 1517 1515 1513 1512 1510 1509 1507 1506 1504 1502 1501 1499 1498 1496 1495 1493 1491 1490 1488 1487 1485 1485 1486 1481 1474 1475 1476 1475 1477 1476 1479 1481 1483 1485 1486 1487 1486 1486 1487 1486 1487 1485 1484 1484 1481 1478 1477 1475 1474 1483 1487 1480 1482 1486 1489 1493 1493 1496 1499 1501 1504 1506 1510 1513 1515 1518 1519 1519 1521 1521 1523 1528 1532 1535 1538 1541 1543 1544 1547 1548
1526 1525 1524 1522 1521 1520 1518 1517 1516 1514 1512 1511 1509 1508 1506 1504 1503 1501 1499 1498 1497 1495 1494 1492 1491 1489 1488 1486 1484 1484 1483 1477 1473 1475 1475 1476 1477 1477 1479 1480 1482 1484 1484 1485 1483 1484 1487 1486 1486 1484 1484 1482 1478 1476 1474 1475 1475 1479 1484 1481 1482 1486 1488 1491 1493 1496 1499 1501 1505 1507 1511 1514 1515 1518 1519 1521 1523 1524 1525 1529 1532 1536 1539 1541 1544 1545 1547 1548
1526 1524 1523 1521 1520 1518 1517 1516 1515 1513 1511 1509 1508 1506 1505 1503 1502 1500 1498 1497 1495 1494 1492 1491 1490 1488 1487 1485 1485 1484 1479 1473 1473 1474 1475 1476 1477 1477 1478 1479 1481 1482 1483 1484 1481 1484 1487 1486 1484 1482 1481 1477 1475 1474 1470 1477 1481 1477 1480 1481 1483 1487 1489 1491 1493 1496 1500 1502 1505 1509 1512 1515 1516 1519 1522 1523 1524 1526 1527 1530 1533 1536 1539 1541 1543 1545 1547 1549
1524 1523 1522 1520 1519 1517 1516 1514 1513 1512 1510 1508 1507 1505 1504 1502 1501 1499 1497 1496 1494 1493 1491 1490 1489 1488 1487 1484 1485 1484 1475 1471 1473 1473 1474 1475 1476 1477 1478 1478 1480 1481 1482 1482 1480 1483 1485 1483 1481 1479 1480 1475 1472 1472 1467 1475 1480 1474 1477 1481 1483 1487 1488 1491 1494 1496 1500 1503 1506 1510 1514 1516 1516 1520 1525 1525 1525 1527 1529 1531 1534 1536 1539 1541 1543 1545 1547 1549
1523 1522 1520 1519 1518 1516 1515 1513 1512 1510 1509 1507 1505 1504 1502 1500 1499 1498 1496 1495 1493 1492 1490 1489 1488 1487 1486 1484 1484 1480 1472 1472 1473 1473 1474 1474 1475 1475 1476 1478 1479 1480 1481 1480 1478 1481 1483 1481 1480 1480 1481 1475 1471 1471 1468 1471 1475 1474 1478 1483 1485 1486 1489 1491 1493 1497 1499 1503 1507 1509 1513 1515 1517 1521 1524 1524 1526 1528 1529 1531 1534 1536 1539 1541 1543 1545 1547 1548
1522 1521 1519 1518 1516 1515 1513 1512 1510 1509 1507 1506 1504 1502 1501 1499 1497 1496 1495 1493 1492 1490 1489 1488 1487 1486 1485 1483 1480 1473 1470 1473 1474 1474 1474 1473 1474 1474 1475 1477 1478 1479 1480 1479 1477 1479 1482 1480 1480 1481 1480 1475 1473 1473 1471 1469 1472 1474 1478 1488 1491 1488 1492 1492 1492 1497 1499 1504 1506 1508 1518 1522 1520 1523 1523 1524 1526 1528 1529 1532 1533 1536 1538 1540 1542 1545 1546 1547
1520 1519 1518 1516 1515 1513 1512 1510 1509 1507 1506 1504 1503 1501 1499 1497 1496 1494 1493 1492 1490 1489 1488 1487 1486 1485 1484 1480 1472 1469 1470 1472 1472 1473 1474 1472 1473 1473 1475 1477 1478 1479 1480 1478 1478 1479 1480 1479 1478 1479 1477 1476 1475 1474 1471 1467 1471 1477 1479 1488 1496 1499 1501 1493 1491 1497 1499 1503 1503 1508 1530 1534 1524 1521 1522 1524 1526 1527 1530 1531 1533 1535 1537 1539 1541 1544 1545 1547
1519 1518 1516 1515 1514 1512 1510 1509 1507 1505 1504 1503 1501 1500 1498 1496 1494 1492 1491 1490 1489 1488 1486 1486 1484 1484 1483 1476 1469 1468 1469 1470 1471 1472 1473 1473 1473 1473 1475 1477 1478 1479 1480 1478 1478 1478 1479 1478 1478 1477 1475 1475 1474 1472 1470 1469 1474 1480 1484 1491 1499 1510 1508 1492 1490 1497 1501 1504 1499 1507 1533 1536 1524 1521 1521 1524 1525 1527 1529 1531 1533 1535 1536 1538 1540 1543 1545 1546
1518 1516 1515 1513 1512 1511 1509 1508 1506 1504 1502 1501 1499 1498 1496 1494 1492 1490 1490 1488 1487 1486 1485 1484 1483 1483 1482 1474 1468 1469 1469 1469 1469 1469 1473 1473 1473 1474 1474 1476 1478 1479 1480 1479 1478 1478 1478 1478 1477 1475 1473 1473 1473 1475 1477 1478 1478 1481 1496 1506 1503 1509 1509 1494 1489 1494 1501 1503 1497 1508 1531 1532 1522 1520 1520 1522 1525 1526 1529 1530 1532 1534 1535 1537 1539 1542 1544 1545
1516 1515 1513 1512 1510 1509 1508 1506 1504 1502 1501 1499 1497 1496 1494 1492 1489 1488 1487 1486 1485 1484 1483 1484 1483 1483 1482 1473 1467 1468 1468 1468 1468 1469 1472 1472 1473 1473 1474 1476 1477 1478 1479 1479 1479 1478 1478 1477 1475 1474 1473 1474 1475 1478 1484 1490 1490 1487 1498 1511 1508 1508 1510 1502 1493 1490 1495 1500 1498 1506 1524 1529 1521 1518 1519 1521 1523 1525 1528 1530 1531 1533 1534 1536 1539 1541 1542 1544
1515 1513 1512 1510 1509 1507 1506 1505 1503 1501 1499 1497 1496 1493 1492 1490 1487 1486 1484 1483 1483 1482 1482 1482 1482 1483 1478 1470 1466 1466 1465 1466 1467 1469 1469 1471 1473 1473 1474 1476 1476 1478 1478 1479 1479 1477 1476 1475 1474 1475 1474 1475 1475 1479 1494 1505 1504 1497 1498 1505 1505 1504 1509 1508 1501 1492 1491 1499 1503 1505 1514 1522 1518 1515 1518 1519 1521 1524 1526 1529 1530 1532 1534 1535 1538 1540 1541 1543
1514 1512 1510 1509 1507 1506 1505 1503 1501 1499 1497 1496 1494 1492 1490 1488 1485 1484 1482 1481 1481 1481 1482 1480 1482 1485 1475 1464 1464 1463 1463 1465 1466 1467 1468 1470 1471 1472 1474 1475 1475 1477 1477 1478 1477 1475 1476 1473 1472 1478 1479 1479 1477 1482 1499 1505 1500 1500 1500 1504 1505 1502 1505 1507 1504 1494 1491 1498 1505 1507 1514 1518 1516 1513 1516 1518 1520 1523 1524 1527 1529 1530 1532 1534 1537 1539 1540 1542
1512 1510 1509 1507 1506 1504 1503 1502 1500 1498 1496 1494 1493 1491 1488 1486 1484 1482 1480 1480 1480 1480 1481 1478 1478 1481 1471 1461 1461 1462 1462 1464 1464 1465 1467 1468 1470 1471 1472 1474 1475 1475 1476 1478 1477 1473 1474 1474 1477 1486 1487 1485 1480 1479 1487 1486 1484 1491 1495 1499 1503 1504 1503 1500 1497 1489 1488 1499 1505 1508 1515 1517 1516 1515 1514 1516 1518 1521 1523 1525 1528 1530 1531 1533 1535 1537 1538 1541
1510 1508 1507 1505 1504 1503 1501 1501 1499 1497 1495 1492 1491 1490 1487 1486 1484 1482 1480 1479 1478 1476 1475 1474 1472 1470 1464 1459 1461 1462 1461 1462 1463 1463 1465 1467 1468 1469 1471 1473 1473 1474 1474 1477 1478 1471 1472 1482 1487 1489 1487 1481 1475 1471 1472 1471 1473 1479 1487 1492 1495 1499 1501 1494 1492 1486 1483 1499 1506 1503 1510 1514 1514 1514 1512 1514 1516 1518 1522 1523 1526 1528 1530 1532 1534 1535 1537 1539
1508 1507 1505 1504 1502 1501 1500 1499 1498 1496 1494 1492 1491 1490 1487 1487 1487 1485 1480 1476 1474 1473 1471 1470 1469 1466 1461 1458 1458 1460 1460 1460 1461 1462 1464 1466 1466 1468 1469 1470 1472 1476 1474 1473 1474 1471 1475 1487 1488 1481 1477 1473 1469 1465 1465 1469 1471 1476 1482 1489 1491 1493 1495 1489 1488 1485 1480 1496 1506 1501 1507 1513 1511 1511 1509 1511 1514 1516 1518 1520 1523 1526 1528 1531 1532 1534 1536 1538
1508 1506 1503 1502 1500 1499 1498 1497 1497 1495 1493 1491 1490 1489 1487 1487 1488 1486 1482 1475 1469 1469 1469 1466 1465 1463 1459 1456 1455 1457 1460 1459 1460 1461 1462 1464 1465 1466 1466 1468 1473 1476 1472 1471 1475 1478 1483 1487 1481 1473 1469 1467 1467 1463 1464 1469 1471 1476 1479 1485 1490 1488 1489 1490 1485 1483 1481 1494 1505 1501 1507 1513 1507 1507 1507 1507 1511 1513 1515 1516 1519 1523 1526 1529 1531 1533 1535 1536
1506 1504 1503 1501 1498 1498 1496 1496 1495 1493 1492 1490 1489 1488 1487 1486 1485 1484 1483 1477 1467 1464 1465 1462 1460 1459 1456 1453 1451 1453 1455 1456 1457 1458 1459 1461 1462 1463 1464 1467 1472 1473 1472 1473 1478 1485 1489 1484 1472 1467 1465 1467 1469 1465 1465 1469 1470 1474 1477 1483 1489 1482 1488 1499 1490 1483 1482 1488 1497 1500 1506 1510 1506 1506 1505 1505 1507 1509 1511 1514 1516 1519 1521 1524 1527 1529 1532 1534
1504 1502 1502 1499 1497 1496 1494 1494 1493 1491 1491 1488 1488 1487 1487 1487 1485 1483 1480 1477 1469 1458 1456 1456 1455 1455 1451 1448 1449 1449 1450 1452 1454 1455 1457 1459 1459 1461 1463 1464 1470 1473 1473 1472 1474 1481 1482 1474 1465 1464 1464 1465 1470 1468 1467 1474 1475 1473 1473 1478 1482 1477 1480 1489 1486 1482 1484 1486 1490 1498 1514 1515 1508 1510 1509 1504 1504 1505 1507 1511 1513 1516 1518 1521 1524 1526 1528 1531
1501 1501 1500 1497 1497 1493 1493 1493 1490 1491 1489 1486 1488 1487 1487 1486 1484 1482 1479 1478 1474 1456 1448 1450 1449 1449 1446 1445 1447 1445 1446 1449 1450 1452 1454 1455 1457 1459 1460 1461 1467 1473 1472 1469 1472 1477 1474 1465 1461 1465 1465 1464 1468 1470 1468 1472 1478 1477 1471 1467 1470 1472 1473 1477 1480 1484 1495 1501 1491 1497 1526 1530 1511 1508 1510 1504 1503 1504 1504 1506 1509 1513 1515 1517 1520 1522 1525 1528
1500 1500 1498 1497 1495 1491 1491 1491 1489 1490 1487 1486 1488 1485 1486 1484 1482 1483 1478 1483 1480 1455 1444 1444 1442 1442 1440 1442 1444 1443 1449 1450 1447 1450 1451 1453 1455 1455 1459 1460 1461 1468 1467 1464 1469 1471 1466 1459 1458 1463 1465 1465 1467 1469 1465 1465 1478 1482 1468 1457 1459 1465 1471 1477 1481 1487 1501 1505 1488 1487 1516 1531 1518 1510 1506 1502 1503 1504 1502 1503 1505 1508 1511 1513 1515 1518 1521 1524
1498 1497 1496 1496 1494 1491 1489 1488 1490 1489 1486 1487 1485 1483 1485 1481 1483 1482 1482 1497 1484 1446 1436 1438 1435 1436 1434 1436 1439 1444 1454 1451 1445 1448 1446 1451 1454 1452 1459 1460 1460 1463 1457 1460 1473 1468 1459 1459 1460 1460 1463 1466 1469 1469 1461 1459 1475 1479 1460 1452 1458 1462 1468 1474 1478 1486 1490 1490 1487 1482 1496 1521 1526 1512 1500 1500 1505 1506 1504 1502 1502 1503 1506 1509 1511 1514 1516 1520
1496 1495 1494 1494 1494 1493 1489 1486 1488 1487 1487 1486 1482 1484 1483 1481 1485 1481 1491 1512 1478 1431 1430 1433 1430 1432 1431 1434 1437 1439 1446 1445 1445 1448 1443 1447 1451 1450 1456 1456 1457 1460 1451 1460 1477 1465 1454 1458 1460 1459 1463 1467 1465 1461 1453 1453 1468 1467 1452 1451 1457 1459 1464 1465 1472 1483 1481 1488 1501 1491 1488 1515 1527 1508 1498 1502 1506 1509 1506 1501 1500 1499 1501 1504 1506 1509 1511 1514
1494 1493 1492 1491 1492 1493 1489 1486 1486 1486 1487 1484 1482 1484 1481 1483 1485 1480 1499 1508 1461 1426 1432 1430 1429 1432 1430 1433 1436 1436 1439 1440 1443 1444 1442 1445 1448 1448 1453 1451 1451 1455 1450 1455 1466 1459 1450 1451 1450 1453 1461 1463 1457 1451 1446 1451 1460 1455 1448 1453 1456 1456 1459 1462 1471 1481 1483 1496 1509 1496 1487 1509 1523 1510 1503 1508 1508 1506 1501 1496 1495 1495 1497 1499 1501 1505 1508 1511
1492 1491 1490 1488 1489 1489 1488 1485 1484 1486 1485 1483 1483 1482 1481 1484 1484 1494 1513 1496 1450 1433 1432 1429 1430 1431 1430 1435 1436 1435 1437 1438 1437 1438 1440 1443 1445 1446 1448 1448 1447 1451 1452 1451 1455 1452 1443 1441 1441 1444 1450 1450 1448 1446 1443 1446 1449 1448 1451 1459 1461 1461 1460 1464 1470 1476 1491 1505 1502 1490 1483 1494 1515 1515 1503 1500 1496 1490 1491 1493 1493 1491 1492 1495 1497 1501 1505 1508
1489 1488 1487 1486 1486 1486 1485 1482 1483 1485 1484 1483 1483 1481 1484 1483 1485 1504 1508 1473 1446 1439 1431 1430 1431 1427 1431 1437 1438 1437 1436 1436 1433 1435 1441 1442 1445 1448 1448 1452 1452 1454 1459 1456 1455 1450 1443 1443 1441 1437 1438 1439 1443 1447 1443 1441 1442 1448 1457 1464 1472 1475 1471 1475 1477 1480 1501 1511 1494 1482 1478 1484 1507 1511 1495 1484 1475 1473 1481 1486 1486 1487 1488 1491 1494 1498 1501 1505
1486 1485 1484 1484 1483 1482 1481 1480 1481 1484 1483 1484 1484 1482 1485 1488 1493 1499 1485 1460 1453 1441 1427 1431 1430 1426 1431 1433 1436 1437 1437 1439 1433 1433 1439 1442 1447 1449 1450 1455 1455 1463 1471 1465 1460 1456 1449 1445 1438 1435 1434 1433 1443 1452 1450 1445 1445 1452 1461 1468 1484 1493 1492 1497 1498 1495 1505 1504 1485 1477 1479 1486 1493 1488 1478 1475 1469 1467 1470 1472 1475 1480 1484 1487 1491 1494 1497 1501
1482 1481 1480 1480 1479 1477 1477 1478 1480 1482 1482 1483 1484 1482 1486 1498 1498 1484 1469 1463 1453 1430 1419 1425 1423 1423 1429 1432 1435 1433 1435 1440 1433 1431 1435 1438 1447 1449 1448 1447 1446 1459 1469 1463 1463 1464 1459 1449 1437 1438 1437 1430 1438 1453 1461 1458 1454 1459 1463 1471 1488 1498 1508 1515 1511 1507 1507 1496 1479 1472 1481 1491 1486 1470 1463 1464 1462 1460 1461 1464 1471 1475 1479 1483 1486 1490 1494 1497
1479 1478 1476 1475 1475 1473 1474 1477 1478 1479 1480 1482 1483 1483 1491 1501 1491 1470 1463 1459 1442 1426 1423 1422 1420 1424 1426 1430 1433 1429 1435 1439 1430 1430 1434 1438 1449 1451 1449 1446 1442 1448 1456 1459 1461 1462 1468 1464 1445 1441 1439 1432 1435 1443 1450 1453 1455 1457 1453 1461 1478 1486 1499 1511 1509 1509 1508 1496 1483 1478 1485 1492 1486 1469 1454 1450 1451 1455 1459 1464 1468 1472 1475 1479 1484 1489 1492 1495
1476 1475 1472 1469 1470 1470 1471 1474 1475 1476 1479 1479 1482 1486 1492 1493 1480 1467 1460 1447 1437 1434 1429 1422 1422 1428 1429 1428 1427 1422 1430 1436 1429 1429 1433 1438 1447 1449 1447 1447 1442 1442 1450 1461 1459 1452 1463 1462 1439 1430 1430 1428 1436 1436 1432 1444 1458 1453 1445 1458 1472 1470 1477 1490 1492 1490 1492 1495 1491 1485 1482 1476 1467 1458 1446 1443 1448 1453 1460 1464 1466 1472 1475 1479 1484 1487 1490 1493
1473 1471 1468 1465 1465 1466 1468 1470 1471 1473 1475 1478 1483 1486 1483 1476 1467 1462 1450 1438 1436 1436 1432 1427 1422 1427 1432 1429 1427 1423 1422 1428 1429 1431 1432 1434 1440 1442 1442 1441 1438 1437 1443 1453 1454 1450 1460 1456 1429 1424 1428 1424 1431 1432 1426 1440 1455 1451 1451 1463 1461 1452 1461 1481 1488 1479 1483 1500 1496 1481 1478 1471 1464 1462 1450 1446 1451 1454 1460 1464 1466 1471 1474 1478 1482 1483 1487 1490
1470 1466 1463 1460 1459 1461 1464 1467 1468 1471 1472 1476 1482 1479 1470 1462 1457 1452 1440 1434 1435 1432 1435 1440 1427 1422 1430 1430 1429 1426 1422 1425 1429 1431 1433 1433 1435 1435 1435 1434 1432 1432 1432 1439 1445 1442 1450 1453 1431 1425 1436 1427 1422 1428 1426 1427 1438 1449 1459 1457 1450 1452 1458 1472 1490 1491 1493 1505 1494 1477 1480 1480 1479 1476 1459 1452 1458 1461 1461 1462 1463 1467 1471 1475 1478 1481 1485 1487
1468 1464 1459 1454 1454 1457 1460 1464 1466 1468 1471 1474 1478 1471 1462 1456 1451 1445 1438 1435 1435 1433 1438 1445 1432 1421 1425 1428 1426 1421 1422 1429 1430 1430 1432 1434 1432 1428 1429 1432 1428 1426 1424 1428 1440 1436 1437 1453 1441 1424 1432 1428 1418 1430 1438 1429 1426 1438 1446 1441 1449 1471 1475 1475 1489 1497 1501 1507 1497 1482 1478 1477 1477 1473 1463 1460 1462 1461 1461 1461 1463 1466 1469 1473 1476 1480 1483 1485
1468 1464 1457 1451 1452 1454 1456 1461 1464 1466 1469 1472 1473 1466 1458 1452 1446 1441 1438 1436 1437 1438 1439 1437 1432 1426 1421 1420 1421 1417 1419 1427 1428 1428 1431 1432 1431 1421 1419 1426 1425 1424 1421 1422 1435 1434 1432 1450 1449 1425 1421 1425 1424 1435 1449 1445 1432 1431 1436 1438 1445 1460 1468 1470 1476 1481 1490 1501 1499 1490 1484 1479 1472 1462 1458 1461 1458 1456 1460 1462 1464 1466 1467 1471 1474 1478 1481 1484
1470 1466 1458 1450 1452 1453 1454 1460 1463 1465 1466 1466 1464 1459 1453 1448 1443 1438 1438 1439 1438 1439 1437 1431 1430 1431 1421 1414 1415 1412 1413 1418 1421 1425 1426 1425 1427 1421 1414 1417 1420 1420 1418 1418 1426 1430 1430 1444 1450 1433 1420 1428 1437 1437 1441 1446 1442 1441 1447 1451 1451 1450 1452 1459 1464 1464 1472 1489 1495 1496 1499 1488 1467 1454 1453 1456 1455 1454 1457 1461 1464 1465 1466 1469 1471 1475 1479 1482
1471 1468 1458 1451 1452 1453 1455 1461 1463 1462 1462 1460 1457 1454 1449 1445 1441 1436 1436 1437 1435 1432 1431 1428 1427 1428 1422 1417 1414 1409 1409 1414 1414 1418 1421 1419 1423 1423 1412 1408 1413 1415 1417 1421 1424 1427 1431 1438 1444 1441 1433 1436 1437 1427 1425 1431 1434 1439 1445 1448 1450 1451 1453 1466 1474 1464 1461 1473 1481 1490 1504 1492 1462 1451 1452 1452 1452 1453 1454 1458 1463 1464 1466 1469 1471 1474 1477 1480
1472 1468 1457 1453 1455 1455 1457 1459 1459 1459 1458 1456 1452 1450 1446 1442 1438 1435 1433 1433 1432 1427 1423 1422 1421 1420 1417 1414 1411 1409 1412 1414 1412 1412 1414 1412 1414 1415 1406 1401 1405 1408 1413 1421 1420 1417 1421 1429 1438 1440 1435 1431 1426 1416 1417 1421 1423 1429 1435 1437 1440 1445 1452 1468 1480 1471 1463 1467 1466 1475 1496 1488 1459 1450 1452 1451 1452 1453 1455 1458 1461 1463 1466 1468 1471 1473 1476 1478
1473 1465 1454 1453 1457 1457 1457 1458 1456 1455 1453 1451 1448 1445 1443 1439 1436 1434 1432 1431 1429 1424 1419 1416 1415 1414 1411 1407 1408 1411 1413 1415 1413 1408 1407 1406 1403 1401 1397 1396 1400 1402 1407 1416 1415 1411 1416 1426 1436 1439 1431 1423 1418 1413 1412 1414 1420 1430 1434 1431 1435 1442 1445 1452 1459 1460 1465 1469 1465 1475 1495 1488 1461 1451 1451 1451 1452 1453 1456 1459 1461 1464 1465 1467 1470 1472 1474 1477
1472 1463 1453 1453 1455 1455 1455 1455 1454 1453 1449 1447 1445 1442 1439 1436 1432 1431 1430 1428 1425 1421 1418 1414 1410 1409 1406 1402 1405 1407 1410 1415 1414 1406 1403 1404 1397 1392 1390 1391 1395 1398 1402 1407 1407 1409 1419 1426 1433 1444 1447 1442 1437 1434 1430 1424 1425 1432 1434 1431 1432 1435 1438 1443 1447 1453 1465 1468 1464 1477 1496 1486 1463 1453 1451 1451 1453 1454 1456 1457 1460 1463 1465 1467 1469 1470 1473 1475
1471 1464 1455 1453 1454 1453 1451 1450 1450 1450 1447 1445 1442 1439 1437 1433 1428 1427 1425 1423 1420 1416 1415 1411 1405 1403 1401 1400 1403 1404 1405 1412 1413 1406 1402 1401 1392 1385 1384 1387 1390 1392 1394 1395 1394 1401 1416 1422 1426 1441 1456 1459 1457 1452 1444 1436 1432 1431 1431 1430 1431 1433 1436 1443 1449 1459 1470 1466 1459 1472 1487 1479 1462 1455 1454 1453 1454 1456 1456 1457 1459 1462 1463 1466 1467 1469 1471 1473
1474 1469 1460 1454 1452 1450 1449 1448 1447 1447 1445 1444 1442 1437 1435 1431 1424 1422 1420 1419 1417 1412 1411 1407 1403 1403 1405 1404 1407 1408 1404 1405 1408 1405 1403 1403 1396 1386 1382 1382 1384 1385 1387 1388 1388 1394 1408 1416 1418 1428 1439 1443 1444 1437 1427 1427 1433 1436 1434 1431 1432 1432 1433 1439 1449 1460 1464 1462 1462 1467 1471 1472 1467 1459 1456 1454 1453 1455 1455 1455 1458 1460 1461 1464 1465 1467 1469 1470
1477 1472 1467 1463 1457 1452 1450 1447 1446 1445 1443 1443 1442 1437 1433 1429 1423 1418 1416 1414 1412 1409 1407 1404 1402 1407 1411 1410 1411 1412 1407 1404 1405 1405 1404 1405 1400 1391 1384 1379 1378 1380 1382 1384 1385 1392 1407 1416 1416 1419 1423 1423 1425 1423 1416 1419 1428 1432 1432 1432 1432 1431 1432 1440 1449 1451 1452 1460 1469 1463 1458 1465 1466 1457 1454 1453 1450 1451 1452 1451 1454 1457 1459 1462 1464 1465 1467 1469
1476 1472 1470 1470 1467 1460 1457 1453 1449 1447 1443 1439 1437 1434 1431 1429 1424 1420 1416 1412 1408 1405 1405 1407 1405 1407 1409 1410 1414 1415 1411 1408 1408 1406 1405 1406 1402 1396 1391 1383 1376 1375 1378 1382 1384 1389 1404 1415 1412 1413 1418 1415 1414 1416 1415 1418 1423 1424 1427 1429 1430 1430 1433 1439 1443 1441 1444 1455 1462 1458 1454 1457 1456 1450 1449 1447 1445 1446 1448 1449 1453 1456 1458 1460 1462 1464 1465 1466
1477 1474 1471 1471 1469 1464 1462 1458 1452 1448 1443 1438 1435 1431 1429 1428 1424 1419 1415 1417 1414 1405 1404 1411 1411 1407 1406 1407 1412 1416 1414 1412 1411 1408 1406 1407 1405 1404 1405 1398 1385 1376 1376 1382 1384 1384 1399 1412 1407 1408 1416 1415 1412 1413 1413 1417 1422 1423 1425 1425 1426 1428 1429 1432 1434 1433 1437 1443 1446 1449 1453 1449 1444 1441 1440 1438 1438 1441 1444 1447 1451 1453 1455 1457 1459 1462 1463 1465
1479 1477 1474 1472 1469 1464 1461 1457 1453 1447 1441 1438 1435 1430 1425 1424 1421 1416 1413 1419 1424 1415 1409 1411 1410 1406 1406 1406 1409 1413 1410 1408 1410 1407 1404 1405 1406 1407 1411 1407 1397 1388 1382 1383 1384 1385 1397 1409 1405 1405 1418 1420 1414 1413 1413 1417 1422 1426 1427 1425 1424 1427 1427 1428 1429 1428 1432 1437 1437 1443 1452 1448 1437 1432 1432 1434 1436 1438 1442 1445 1448 1451 1453 1455 1457 1460 1462 1463
1480 1480 1477 1474 1468 1462 1460 1456 1452 1449 1442 1438 1436 1430 1425 1421 1419 1417 1414 1414 1421 1423 1419 1414 1409 1406 1406 1406 1407 1408 1405 1403 1406 1403 1400 1402 1404 1406 1408 1404 1399 1398 1391 1385 1386 1388 1398 1408 1405 1408 1425 1427 1419 1417 1417 1415 1420 1427 1430 1427 1425 1428 1430 1429 1427 1426 1429 1433 1435 1442 1450 1447 1436 1430 1433 1436 1436 1439 1442 1444 1446 1449 1451 1453 1456 1458 1459 1461
1478 1478 1477 1476 1470 1463 1461 1457 1453 1450 1446 1441 1438 1434 1428 1422 1418 1419 1419 1414 1414 1418 1418 1414 1409 1407 1408 1410 1409 1406 1404 1403 1404 1402 1400 1400 1398 1399 1402 1400 1397 1399 1396 1389 1389 1391 1397 1407 1409 1415 1429 1430 1421 1420 1419 1420 1432 1439 1432 1426 1425 1426 1428 1429 1427 1426 1424 1425 1431 1439 1441 1436 1430 1431 1436 1439 1439 1440 1442 1443 1445 1448 1449 1452 1455 1456 1458 1459